Caldwell, ID

1:28 AM MDT on July 26, 2017 (GMT -0600)
Caldwell Industrial

Weather History for KEUL - January, 2014

Change the Weather History Date:

Wednesday, January 1, 2014

  Actual Average (KBOI) Record (KBOI)
Temperature  
Mean Temperature 22 °F -  
Max Temperature 30 °F 32 °F 61 °F (1939)
Min Temperature 15 °F 16 °F -13 °F (1942)
Degree Days  
Heating Degree Days 42    
Moisture  
Dew Point 15 °F    
Average Humidity 75    
Maximum Humidity 86    
Minimum Humidity 68    
Precipitation  
Precipitation 0.00 in - - ()
Sea Level Pressure  
Sea Level Pressure 30.42 in    
Wind  
Wind Speed 2 mph (ENE)    
Max Wind Speed 6 mph    
Max Gust Speed -    
Visibility 2 miles    
Events      
Averages and records for this station are not official NWS values.
T = Trace of Precipitation, MM = Missing Value Source: NWS Daily Summary

Daily Weather History Graph

Daily Weather History Graph

Search for Another Location

Airport or City:

Trip Planner

Search our weather history database for the weather conditions in past years. The results will help you decide how hot, cold, wet, or windy it might be!

Date:

Astronomy

Jan. 01, 2014 Rise Set
Actual Time 8:20 AM MST 5:20 PM MST
Civil Twilight 7:47 AM MST 5:53 PM MST
Nautical Twilight 7:11 AM MST 6:29 PM MST
Astronomical Twilight 6:36 AM MST 7:04 PM MST
Moon 8:12 AM MST (1/1) 6:13 PM MST (1/1)
Length of Visible Light 10h 05m
Length of Day
9h 00m
New Moon, 0% of the Moon is Illuminated
Jan 1
New Moon
Jan 7
First Quarter
Jan 15
Full
Jan 23
Last Quarter
Jan 30
New

Hourly Weather History & Observations

Time (MST) Temp. Windchill Dew Point Humidity Pressure Visibility Wind Dir Wind Speed Gust Speed Precip Events Conditions
12:15 AM 21.2 °F - 15.8 °F 80% 30.37 in 3.0 mi Calm Calm - N/A   Clear
12:35 AM 21.2 °F - 14.0 °F 74% 30.37 in 3.0 mi Calm Calm - N/A   Clear
12:55 AM 21.2 °F 14.9 °F 15.8 °F 80% 30.37 in 1.2 mi ENE 4.6 mph - N/A   Clear
1:15 AM 19.4 °F - 14.0 °F 80% 30.37 in 1.2 mi Calm Calm - N/A   Clear
1:35 AM 21.2 °F 16.4 °F 14.0 °F 74% 30.37 in 0.5 mi South 3.5 mph - N/A   Mostly Cloudy
1:55 AM 21.2 °F 16.4 °F 14.0 °F 74% 30.37 in 2.0 mi ESE 3.5 mph - N/A   Scattered Clouds
2:15 AM 17.6 °F - 10.4 °F 73% 30.38 in 1.2 mi Calm Calm - N/A   Scattered Clouds
2:35 AM 19.4 °F - 12.2 °F 74% 30.37 in 0.5 mi Calm Calm - N/A   Mostly Cloudy
2:55 AM 17.6 °F - 10.4 °F 73% 30.39 in 1.2 mi Calm Calm - N/A   Mostly Cloudy
3:15 AM 17.6 °F - 10.4 °F 73% 30.39 in 0.2 mi Calm Calm - N/A   Overcast
3:35 AM 15.8 °F 8.6 °F 8.6 °F 73% 30.39 in 0.2 mi ENE 4.6 mph - N/A   Overcast
3:55 AM 15.8 °F - 8.6 °F 73% 30.39 in 0.2 mi Calm Calm - N/A   Overcast
4:15 AM 15.8 °F 8.6 °F 8.6 °F 73% 30.39 in 0.2 mi ESE 4.6 mph - N/A   Overcast
4:35 AM 17.6 °F 12.3 °F 10.4 °F 73% 30.40 in 0.2 mi ESE 3.5 mph - N/A   Overcast
4:55 AM 17.6 °F 12.3 °F 10.4 °F 73% 30.39 in 0.2 mi East 3.5 mph - N/A   Overcast
5:15 AM 15.8 °F 8.6 °F 8.6 °F 73% 30.40 in 4.0 mi East 4.6 mph - N/A   Scattered Clouds
5:35 AM 15.8 °F 7.2 °F 6.8 °F 68% 30.40 in 0.5 mi East 5.8 mph - N/A   Overcast
5:55 AM 15.8 °F 10.2 °F 8.6 °F 73% 30.40 in 0.2 mi East 3.5 mph - N/A   Overcast
6:15 AM 15.8 °F 7.2 °F 8.6 °F 73% 30.41 in 2.5 mi ENE 5.8 mph - N/A   Overcast
6:35 AM 17.6 °F 12.3 °F 8.6 °F 68% 30.41 in 0.8 mi East 3.5 mph - N/A   Overcast
6:55 AM 17.6 °F 12.3 °F 8.6 °F 68% 30.41 in 0.5 mi ESE 3.5 mph - N/A   Overcast
7:15 AM 15.8 °F - 8.6 °F 73% 30.42 in 1.0 mi Calm Calm - N/A   Overcast
7:35 AM 15.8 °F 8.6 °F 8.6 °F 73% 30.42 in 0.5 mi ENE 4.6 mph - N/A   Overcast
7:55 AM 15.8 °F 10.2 °F 8.6 °F 73% 30.43 in 0.2 mi NE 3.5 mph - N/A   Overcast
8:15 AM 17.6 °F - 8.6 °F 68% 30.43 in 0.2 mi Calm Calm - N/A   Overcast
8:35 AM 17.6 °F - 8.6 °F 68% 30.44 in 0.2 mi Calm Calm - N/A   Overcast
8:55 AM 17.6 °F - 8.6 °F 68% 30.44 in 0.2 mi Calm Calm - N/A   Overcast
9:15 AM 17.6 °F - 8.6 °F 68% 30.46 in 0.2 mi Calm Calm - N/A   Overcast
9:35 AM 17.6 °F - 10.4 °F 73% 30.47 in 0.2 mi Calm Calm - N/A   Overcast
9:55 AM 17.6 °F - 10.4 °F 73% 30.47 in 0.2 mi Calm Calm - N/A   Overcast
10:15 AM 17.6 °F - 10.4 °F 73% 30.47 in 0.2 mi Calm Calm - N/A   Overcast
10:35 AM 17.6 °F - 12.2 °F 79% 30.47 in 0.2 mi Calm Calm - N/A   Overcast
10:55 AM 21.2 °F - 15.8 °F 80% 30.47 in 0.2 mi Calm Calm - N/A   Overcast
11:15 AM 21.2 °F - 15.8 °F 80% 30.47 in 0.5 mi Calm Calm - N/A   Overcast
11:35 AM 21.2 °F - 17.6 °F 86% 30.47 in 1.0 mi Calm Calm - N/A   Mostly Cloudy
11:55 AM 23.0 °F 18.4 °F 17.6 °F 80% 30.46 in 1.2 mi ENE 3.5 mph - N/A   Clear
12:15 PM 24.8 °F 20.5 °F 17.6 °F 74% 30.46 in 1.8 mi NE 3.5 mph - N/A   Clear
12:35 PM 24.8 °F 20.5 °F 19.4 °F 80% 30.45 in 1.2 mi NE 3.5 mph - N/A   Scattered Clouds
12:55 PM 24.8 °F 19.1 °F 19.4 °F 80% 30.44 in 0.5 mi NNE 4.6 mph - N/A   Overcast
1:15 PM 24.8 °F - 19.4 °F 80% 30.44 in 0.5 mi Calm Calm - N/A   Overcast
1:35 PM 26.6 °F - 21.2 °F 80% 30.43 in 0.5 mi Calm Calm - N/A   Overcast
1:55 PM 26.6 °F 21.2 °F 21.2 °F 80% 30.43 in 0.8 mi ENE 4.6 mph - N/A   Overcast
2:15 PM 26.6 °F - 21.2 °F 80% 30.43 in 1.0 mi Calm Calm - N/A   Overcast
2:35 PM 26.6 °F - 21.2 °F 80% 30.42 in 2.5 mi Calm Calm - N/A   Partly Cloudy
2:55 PM 28.4 °F 23.3 °F 23.0 °F 80% 30.42 in 5.0 mi North 4.6 mph - N/A   Clear
3:15 PM 28.4 °F 23.3 °F 23.0 °F 80% 30.42 in 5.0 mi North 4.6 mph - N/A   Clear
3:35 PM 30.2 °F 24.3 °F 24.8 °F 80% 30.42 in 5.0 mi North 5.8 mph - N/A   Clear
3:55 PM 30.2 °F 26.7 °F 23.0 °F 75% 30.42 in 5.0 mi North 3.5 mph - N/A   Clear
4:15 PM 30.2 °F 26.7 °F 23.0 °F 75% 30.41 in 5.0 mi ENE 3.5 mph - N/A   Clear
4:35 PM 28.4 °F - 19.4 °F 69% 30.40 in 5.0 mi Calm Calm - N/A   Clear
4:55 PM 28.4 °F - 19.4 °F 69% 30.40 in 5.0 mi Calm Calm - N/A   Clear
5:15 PM 28.4 °F - 19.4 °F 69% 30.41 in 5.0 mi Calm Calm - N/A   Clear
5:35 PM 28.4 °F - 21.2 °F 74% 30.40 in 5.0 mi Calm Calm - N/A   Clear
5:55 PM 28.4 °F - 19.4 °F 69% 30.40 in 5.0 mi Calm Calm - N/A   Clear
6:15 PM 24.8 °F 20.5 °F 17.6 °F 74% 30.40 in 4.0 mi North 3.5 mph - N/A   Clear
6:35 PM 23.0 °F 15.8 °F 15.8 °F 74% 30.40 in 3.0 mi NE 5.8 mph - N/A   Clear
6:55 PM 23.0 °F 17.0 °F 15.8 °F 74% 30.41 in 2.0 mi NE 4.6 mph - N/A   Clear
7:15 PM 21.2 °F 16.4 °F 15.8 °F 80% 30.41 in 2.5 mi East 3.5 mph - N/A   Clear
7:35 PM 23.0 °F - 17.6 °F 80% 30.41 in 2.0 mi Calm Calm - N/A   Clear
7:55 PM 23.0 °F 18.4 °F 15.8 °F 74% 30.41 in 2.0 mi ESE 3.5 mph - N/A   Clear
8:15 PM 23.0 °F - 17.6 °F 80% 30.41 in 1.8 mi Calm Calm - N/A   Clear
8:35 PM 23.0 °F - 17.6 °F 80% 30.41 in 0.5 mi Calm Calm - N/A   Unknown
8:55 PM 23.0 °F 18.4 °F 17.6 °F 80% 30.42 in 2.5 mi WNW 3.5 mph - N/A   Clear
9:15 PM 23.0 °F - 17.6 °F 80% 30.42 in 2.5 mi Calm Calm - N/A   Clear
9:35 PM 24.8 °F - 17.6 °F 74% 30.41 in 2.5 mi Calm Calm - N/A   Clear
9:55 PM 23.0 °F 18.4 °F 15.8 °F 74% 30.41 in 3.0 mi SW 3.5 mph - N/A   Clear
10:15 PM 23.0 °F 18.4 °F 15.8 °F 74% 30.41 in 2.5 mi SE 3.5 mph - N/A   Clear
10:35 PM 21.2 °F - 15.8 °F 80% 30.41 in 2.5 mi Calm Calm - N/A   Clear
10:55 PM 19.4 °F 12.8 °F 12.2 °F 74% 30.42 in 2.5 mi NE 4.6 mph - N/A   Clear
11:15 PM 19.4 °F 14.3 °F 14.0 °F 80% 30.42 in 1.5 mi NNE 3.5 mph - N/A   Mostly Cloudy
11:35 PM 19.4 °F - 12.2 °F 74% 30.42 in 1.8 mi Calm Calm - N/A   Overcast
11:55 PM 19.4 °F - 12.2 °F 74% 30.42 in 0.2 mi Calm Calm - N/A   Overcast